TimeEDT,TemperatureF,Dew PointF,Humidity,Sea Level PressureIn,VisibilityMPH,Wind Direction,Wind SpeedMPH,Gust SpeedMPH,PrecipitationIn,Events,Conditions,WindDirDegrees,DateUTC
12:15 AM,71.6,69.8,94,30.09,8.0,Calm,Calm,-,N/A,,Clear,0,2013-07-05 04:15:00
12:35 AM,71.6,69.8,94,30.09,5.0,Calm,Calm,-,N/A,,Clear,0,2013-07-05 04:35:00
12:55 AM,71.6,69.8,94,30.09,6.0,Calm,Calm,-,N/A,,Clear,0,2013-07-05 04:55:00
1:15 AM,71.6,69.8,94,30.08,6.0,Calm,Calm,-,N/A,,Clear,0,2013-07-05 05:15:00
1:35 AM,69.8,68.0,94,30.08,3.0,Calm,Calm,-,N/A,,Clear,0,2013-07-05 05:35:00
1:55 AM,69.8,68.0,94,30.08,4.0,Calm,Calm,-,N/A,,Clear,0,2013-07-05 05:55:00
2:15 AM,69.8,68.0,94,30.08,7.0,Calm,Calm,-,N/A,,Clear,0,2013-07-05 06:15:00
2:35 AM,69.8,68.0,94,30.09,4.0,Calm,Calm,-,N/A,,Clear,0,2013-07-05 06:35:00
2:55 AM,69.8,68.0,94,30.09,4.0,Calm,Calm,-,N/A,,Clear,0,2013-07-05 06:55:00
3:15 AM,69.8,68.0,94,30.09,4.0,Calm,Calm,-,N/A,,Clear,0,2013-07-05 07:15:00
3:35 AM,69.8,68.0,94,30.09,1.0,Calm,Calm,-,N/A,,Clear,0,2013-07-05 07:35:00
3:55 AM,66.2,66.2,100,30.09,4.0,Calm,Calm,-,N/A,,Clear,0,2013-07-05 07:55:00
4:15 AM,69.8,68.0,94,30.09,9.0,Calm,Calm,-,N/A,,Clear,0,2013-07-05 08:15:00
4:35 AM,68.0,66.2,94,30.10,5.0,North,-9999.0,-,N/A,,Clear,0,2013-07-05 08:35:00
4:55 AM,68.0,66.2,94,30.10,4.0,Calm,Calm,-,N/A,,Clear,0,2013-07-05 08:55:00
5:15 AM,66.2,66.2,100,30.10,1.2,Calm,Calm,-,N/A,,Clear,0,2013-07-05 09:15:00
5:35 AM,66.2,66.2,100,30.11,1.0,Calm,Calm,-,N/A,,Clear,0,2013-07-05 09:35:00
5:55 AM,68.0,66.2,94,30.12,3.0,Calm,Calm,-,N/A,,Clear,0,2013-07-05 09:55:00
6:15 AM,68.0,66.2,94,30.12,4.0,Calm,Calm,-,N/A,,Clear,0,2013-07-05 10:15:00
6:35 AM,69.8,69.8,100,30.13,8.0,Calm,Calm,-,N/A,,Clear,0,2013-07-05 10:35:00
6:55 AM,71.6,69.8,94,30.13,10.0,Calm,Calm,-,N/A,,Clear,0,2013-07-05 10:55:00
7:15 AM,75.2,69.8,83,30.13,10.0,Calm,Calm,-,N/A,,Clear,0,2013-07-05 11:15:00
7:35 AM,77.0,69.8,78,30.13,10.0,North,4.6,-,N/A,,Clear,360,2013-07-05 11:35:00
7:55 AM,78.8,68.0,69,30.13,10.0,NW,4.6,-,N/A,,Clear,320,2013-07-05 11:55:00
8:15 AM,78.8,66.2,65,30.14,10.0,NW,6.9,-,N/A,,Clear,310,2013-07-05 12:15:00
8:35 AM,80.6,66.2,61,30.14,10.0,WNW,3.5,-,N/A,,Clear,290,2013-07-05 12:35:00
8:55 AM,80.6,66.2,61,30.13,10.0,WSW,5.8,-,N/A,,Clear,240,2013-07-05 12:55:00
9:15 AM,82.4,66.2,58,30.13,10.0,WNW,3.5,-,N/A,,Clear,300,2013-07-05 13:15:00
9:35 AM,82.4,66.2,58,30.12,10.0,Calm,Calm,-,N/A,,Clear,0,2013-07-05 13:35:00
9:55 AM,82.4,66.2,58,30.13,10.0,West,6.9,-,N/A,,Clear,280,2013-07-05 13:55:00
10:15 AM,84.2,64.4,51,30.13,10.0,WNW,5.8,-,N/A,,Clear,300,2013-07-05 14:15:00
10:35 AM,84.2,66.2,55,30.13,10.0,WNW,5.8,-,N/A,,Clear,290,2013-07-05 14:35:00
10:55 AM,84.2,66.2,55,30.12,10.0,WSW,5.8,-,N/A,,Clear,240,2013-07-05 14:55:00
11:15 AM,84.2,66.2,55,30.11,10.0,West,4.6,-,N/A,,Clear,260,2013-07-05 15:15:00
11:35 AM,86.0,66.2,51,30.11,10.0,West,8.1,-,N/A,,Clear,260,2013-07-05 15:35:00
11:55 AM,87.8,66.2,49,30.10,10.0,WSW,9.2,-,N/A,,Clear,240,2013-07-05 15:55:00
12:15 PM,87.8,66.2,49,30.10,10.0,West,4.6,-,N/A,,Clear,260,2013-07-05 16:15:00
12:35 PM,87.8,66.2,49,30.10,10.0,WSW,8.1,-,N/A,,Partly Cloudy,250,2013-07-05 16:35:00
12:56 PM,87.8,68.0,52,30.09,10.0,SW,9.2,16.1,N/A,,Clear,220,2013-07-05 16:56:00
1:15 PM,-9999,-9999,N/A,30.08,3.0,SW,9.2,-,N/A,,Partly Cloudy,220,2013-07-05 17:15:00
1:35 PM,-9999,-9999,N/A,30.07,10.0,SW,8.1,-,N/A,,Scattered Clouds,220,2013-07-05 17:35:00
1:55 PM,-9999,-9999,N/A,30.07,10.0,SW,8.1,16.1,N/A,,Scattered Clouds,230,2013-07-05 17:55:00
2:15 PM,89.6,69.8,52,30.07,10.0,SW,8.1,-,N/A,,Partly Cloudy,230,2013-07-05 18:15:00
2:35 PM,89.6,68.0,49,30.06,10.0,WSW,12.7,-,N/A,,Partly Cloudy,240,2013-07-05 18:35:00
2:55 PM,89.6,68.0,49,30.05,10.0,SSW,4.6,-,N/A,,Unknown,210,2013-07-05 18:55:00
3:15 PM,-9999,-9999,N/A,30.04,10.0,SSW,13.8,18.4,N/A,,Unknown,210,2013-07-05 19:15:00
3:35 PM,-9999,-9999,N/A,30.04,4.0,SW,12.7,16.1,N/A,,Unknown,220,2013-07-05 19:35:00
3:55 PM,91.4,69.8,49,30.04,10.0,SSW,13.8,18.4,N/A,,Unknown,210,2013-07-05 19:55:00
4:15 PM,91.4,69.8,49,30.03,10.0,SW,15.0,-,N/A,,Unknown,230,2013-07-05 20:15:00
4:35 PM,91.4,69.8,49,30.02,10.0,SSW,12.7,-,N/A,,Unknown,210,2013-07-05 20:35:00
4:55 PM,91.4,71.6,52,30.02,10.0,SSW,12.7,18.4,N/A,,Unknown,210,2013-07-05 20:55:00
5:15 PM,89.6,69.8,52,30.02,10.0,SW,8.1,-,N/A,,Unknown,220,2013-07-05 21:15:00
5:35 PM,87.8,71.6,58,30.02,10.0,SW,8.1,-,N/A,,Unknown,230,2013-07-05 21:35:00
5:55 PM,89.6,71.6,55,30.01,10.0,SW,4.6,-,N/A,,Unknown,230,2013-07-05 21:55:00
6:15 PM,89.6,71.6,55,30.02,10.0,WSW,3.5,-,N/A,,Unknown,240,2013-07-05 22:15:00
6:35 PM,87.8,71.6,58,30.01,10.0,West,6.9,-,N/A,Thunderstorm,Unknown,260,2013-07-05 22:35:00
6:55 PM,84.2,69.8,62,30.02,10.0,WSW,8.1,-,N/A,Thunderstorm,Unknown,250,2013-07-05 22:55:00
7:15 PM,84.2,69.8,62,30.01,10.0,SW,5.8,-,N/A,,Partly Cloudy,220,2013-07-05 23:15:00
7:35 PM,80.6,69.8,70,30.02,10.0,SSW,3.5,-,N/A,,Clear,200,2013-07-05 23:35:00
7:55 PM,80.6,71.6,74,30.01,10.0,ESE,3.5,-,N/A,,Clear,120,2013-07-05 23:55:00
8:15 PM,78.8,71.6,78,30.01,10.0,Calm,Calm,-,N/A,,Clear,0,2013-07-06 00:15:00
8:35 PM,75.2,71.6,89,30.02,10.0,SSW,3.5,-,N/A,,Clear,210,2013-07-06 00:35:00
8:55 PM,77.0,71.6,83,30.02,10.0,SE,3.5,-,N/A,,Clear,130,2013-07-06 00:55:00
9:15 PM,75.2,71.6,89,30.03,10.0,Calm,Calm,-,N/A,,Clear,0,2013-07-06 01:15:00
9:35 PM,75.2,71.6,89,30.03,10.0,Calm,Calm,-,N/A,,Clear,0,2013-07-06 01:35:00
9:55 PM,75.2,71.6,89,30.05,10.0,SSW,3.5,-,N/A,,Clear,200,2013-07-06 01:55:00
10:15 PM,73.4,71.6,94,30.04,10.0,Calm,Calm,-,N/A,,Clear,0,2013-07-06 02:15:00
10:35 PM,73.4,71.6,94,30.03,10.0,Calm,Calm,-,N/A,,Unknown,0,2013-07-06 02:35:00
10:55 PM,75.2,71.6,89,30.03,10.0,Calm,Calm,-,N/A,,Unknown,0,2013-07-06 02:55:00
11:15 PM,73.4,71.6,94,30.02,10.0,Calm,Calm,-,N/A,,Clear,0,2013-07-06 03:15:00
11:35 PM,71.6,69.8,94,30.03,10.0,Calm,Calm,-,N/A,,Clear,0,2013-07-06 03:35:00
11:55 PM,73.4,71.6,94,30.03,10.0,SSE,3.5,-,N/A,,Unknown,150,2013-07-06 03:55:00